Manitowoc, WI

7:13 AM CDT on September 27, 2016 (GMT -0500)
Manitowoc County

Weather History for KMTW - October, 2011

Change the Weather History Date:

Monday, October 24, 2011

  Actual Average Record
Temperature  
Mean Temperature 51 °F -  
Max Temperature 60 °F 55 °F 69 °F (1963)
Min Temperature 42 °F 40 °F 22 °F (1981)
Degree Days  
Heating Degree Days 14    
Growing Degree Days 1 (Base 50)    
Moisture  
Dew Point 37 °F    
Average Humidity 64    
Maximum Humidity 87    
Minimum Humidity 36    
Precipitation  
Precipitation 0.04 in - - ()
Sea Level Pressure  
Sea Level Pressure 29.97 in    
Wind  
Wind Speed 11 mph (West)    
Max Wind Speed 21 mph    
Max Gust Speed 26 mph    
Visibility 10 miles    
Events      
Averages and records for this station are not official NWS values.
T = Trace of Precipitation, MM = Missing Value Source: NWS Daily Summary

Daily Weather History Graph

Daily Weather History Graph

Search for Another Location

Airport or City:

Trip Planner

Search our weather history database for the weather conditions in past years. The results will help you decide how hot, cold, wet, or windy it might be!

Date:

Astronomy

Oct. 24, 2011 Rise Set
Actual Time 7:16 AM CDT 5:52 PM CDT
Civil Twilight 6:46 AM CDT 6:22 PM CDT
Nautical Twilight 6:13 AM CDT 6:55 PM CDT
Astronomical Twilight 5:39 AM CDT 7:29 PM CDT
Moon 4:30 AM CDT (10/24) 4:20 PM CDT (10/24)
Length of Visible Light 11h 35m
Length of Day
10h 36m
Waning Crescent, 7% of the Moon is Illuminated
Oct 24
Waning Crescent
Oct 26
New
Nov 2
First Quarter
Nov 10
Full
Nov 18
Last Quarter

Hourly Weather History & Observations

Time (CDT) Temp. Windchill Dew Point Humidity Pressure Visibility Wind Dir Wind Speed Gust Speed Precip Events Conditions
12:35 AM 48.2 °F - 42.8 °F 82% 29.82 in 10.0 mi WNW 12.7 mph 20.7 mph N/A   Clear
12:55 AM 48.2 °F - 42.8 °F 82% 29.83 in 10.0 mi WNW 16.1 mph 20.7 mph N/A   Clear
1:15 AM 48.2 °F - 42.8 °F 82% 29.84 in 10.0 mi WNW 11.5 mph - N/A   Clear
1:35 AM 46.4 °F 40.4 °F 42.8 °F 87% 29.84 in 10.0 mi West 13.8 mph 17.3 mph N/A   Clear
1:55 AM 46.4 °F 40.7 °F 39.2 °F 76% 29.85 in 10.0 mi WNW 12.7 mph 18.4 mph N/A   Clear
2:15 AM 46.4 °F 41.1 °F 39.2 °F 76% 29.85 in 10.0 mi WNW 11.5 mph 17.3 mph N/A   Clear
2:35 AM 44.6 °F 39.2 °F 39.2 °F 81% 29.86 in 10.0 mi West 10.4 mph - N/A   Clear
2:55 AM 44.6 °F 39.2 °F 39.2 °F 81% 29.86 in 10.0 mi West 10.4 mph - N/A   Clear
3:15 AM 44.6 °F 39.7 °F 37.4 °F 76% 29.86 in 10.0 mi West 9.2 mph - N/A   Clear
3:35 AM 44.6 °F 40.7 °F 37.4 °F 76% 29.87 in 10.0 mi West 6.9 mph - N/A   Clear
3:55 AM 44.6 °F 39.7 °F 37.4 °F 76% 29.88 in 10.0 mi West 9.2 mph - N/A   Clear
4:15 AM 44.6 °F 40.2 °F 37.4 °F 76% 29.88 in 10.0 mi West 8.1 mph - N/A   Clear
4:35 AM 44.6 °F 39.7 °F 37.4 °F 76% 29.88 in 10.0 mi West 9.2 mph - N/A   Clear
4:55 AM 44.6 °F 40.2 °F 37.4 °F 76% 29.88 in 10.0 mi West 8.1 mph - N/A   Clear
5:15 AM 42.8 °F 38.0 °F 37.4 °F 81% 29.89 in 10.0 mi West 8.1 mph - N/A   Clear
5:35 AM 42.8 °F 37.5 °F 37.4 °F 81% 29.89 in 10.0 mi WSW 9.2 mph - N/A   Clear
5:55 AM 42.8 °F 37.5 °F 37.4 °F 81% 29.90 in 10.0 mi WSW 9.2 mph - N/A   Clear
6:15 AM 42.8 °F 36.6 °F 37.4 °F 81% 29.90 in 10.0 mi WSW 11.5 mph - N/A   Clear
6:35 AM 42.8 °F 37.0 °F 37.4 °F 81% 29.90 in 10.0 mi WSW 10.4 mph - N/A   Clear
6:55 AM 42.8 °F 37.0 °F 37.4 °F 81% 29.91 in 10.0 mi West 10.4 mph - N/A   Clear
7:15 AM 42.8 °F 38.0 °F 37.4 °F 81% 29.91 in 10.0 mi WSW 8.1 mph - N/A   Clear
7:35 AM 42.8 °F 37.0 °F 37.4 °F 81% 29.92 in 10.0 mi West 10.4 mph - N/A   Clear
7:55 AM 44.6 °F 38.1 °F 37.4 °F 76% 29.93 in 10.0 mi West 13.8 mph 18.4 mph N/A   Clear
8:15 AM 44.6 °F 38.4 °F 37.4 °F 76% 29.94 in 10.0 mi West 12.7 mph - N/A   Clear
8:35 AM 44.6 °F 38.4 °F 37.4 °F 76% 29.95 in 10.0 mi West 12.7 mph 21.9 mph N/A   Clear
8:55 AM 46.4 °F 40.1 °F 37.4 °F 71% 29.96 in 10.0 mi West 15.0 mph 19.6 mph N/A   Clear
9:15 AM 46.4 °F 40.7 °F 37.4 °F 71% 29.96 in 10.0 mi West 12.7 mph - N/A   Clear
9:35 AM 48.2 °F - 39.2 °F 71% 29.97 in 10.0 mi West 11.5 mph 16.1 mph N/A   Clear
9:55 AM 48.2 °F - 39.2 °F 71% 29.98 in 10.0 mi West 11.5 mph - N/A   Clear
10:15 AM 50.0 °F - 39.2 °F 66% 29.98 in 10.0 mi West 13.8 mph - N/A   Clear
10:35 AM 51.8 °F - 37.4 °F 58% 29.99 in 10.0 mi West 15.0 mph 20.7 mph N/A   Clear
10:55 AM 51.8 °F - 37.4 °F 58% 30.00 in 10.0 mi West 13.8 mph 18.4 mph N/A   Clear
11:15 AM 53.6 °F - 37.4 °F 54% 30.00 in 10.0 mi West 12.7 mph - N/A   Clear
11:35 AM 53.6 °F - 35.6 °F 51% 30.00 in 10.0 mi West 17.3 mph 20.7 mph N/A   Clear
11:55 AM 53.6 °F - 37.4 °F 54% 30.00 in 10.0 mi West 12.7 mph 19.6 mph N/A   Clear
12:15 PM 55.4 °F - 37.4 °F 51% 30.00 in 10.0 mi West 15.0 mph 18.4 mph N/A   Clear
12:35 PM 55.4 °F - 37.4 °F 51% 29.99 in 10.0 mi West 15.0 mph 21.9 mph N/A   Clear
12:55 PM 55.4 °F - 37.4 °F 51% 29.99 in 10.0 mi West 12.7 mph 24.2 mph N/A   Clear
1:35 PM 55.4 °F - 37.4 °F 51% 29.99 in 10.0 mi West 20.7 mph 25.3 mph N/A   Clear
1:55 PM 57.2 °F - 37.4 °F 48% 29.99 in 10.0 mi West 19.6 mph 24.2 mph N/A   Clear
2:15 PM 57.2 °F - 37.4 °F 48% 29.98 in 10.0 mi West 16.1 mph 23.0 mph N/A   Clear
2:35 PM 59.0 °F - 35.6 °F 42% 29.99 in 10.0 mi WNW 18.4 mph 26.5 mph N/A   Clear
2:55 PM 59.0 °F - 35.6 °F 42% 29.98 in 10.0 mi West 15.0 mph 23.0 mph N/A   Clear
3:15 PM 59.0 °F - 35.6 °F 42% 29.99 in 10.0 mi West 18.4 mph 25.3 mph N/A   Clear
3:55 PM 60.8 °F - 35.6 °F 39% 30.00 in 10.0 mi WNW 15.0 mph 21.9 mph N/A   Clear
4:15 PM 60.8 °F - 33.8 °F 36% 30.00 in 10.0 mi West 15.0 mph 20.7 mph N/A   Clear
4:35 PM 60.8 °F - 33.8 °F 36% 30.01 in 10.0 mi WNW 9.2 mph - N/A   Clear
4:55 PM 59.0 °F - 33.8 °F 39% 30.01 in 10.0 mi WNW 15.0 mph - N/A   Clear
5:15 PM 57.2 °F - 33.8 °F 41% 30.02 in 10.0 mi West 9.2 mph - N/A   Clear
5:35 PM 57.2 °F - 33.8 °F 41% 30.03 in 10.0 mi West 8.1 mph - N/A   Clear
5:55 PM 55.4 °F - 33.8 °F 44% 30.03 in 10.0 mi West 4.6 mph - N/A   Clear
6:15 PM 55.4 °F - 35.6 °F 47% 30.04 in 10.0 mi WSW 4.6 mph - N/A   Clear
7:15 PM 51.8 °F - 35.6 °F 54% 30.06 in 10.0 mi WSW 5.8 mph - N/A   Clear
7:35 PM 51.8 °F - 35.6 °F 54% 30.06 in 10.0 mi SW 5.8 mph - N/A   Clear
7:55 PM 50.0 °F - 35.6 °F 58% 30.06 in 10.0 mi WSW 4.6 mph - N/A   Clear
8:15 PM 48.2 °F - 35.6 °F 62% 30.06 in 10.0 mi WSW 4.6 mph - N/A   Clear
8:35 PM 50.0 °F - 35.6 °F 58% 30.07 in 10.0 mi WSW 4.6 mph - N/A   Clear
8:55 PM 44.6 °F - 35.6 °F 71% 30.07 in 10.0 mi Calm Calm - N/A   Clear
9:15 PM 44.6 °F 42.2 °F 35.6 °F 71% 30.07 in 10.0 mi SW 4.6 mph - N/A   Mostly Cloudy
9:55 PM 46.4 °F 44.3 °F 35.6 °F 66% 30.08 in 10.0 mi WSW 4.6 mph - N/A   Overcast
10:15 PM 48.2 °F - 35.6 °F 62% 30.08 in 10.0 mi Calm Calm - N/A   Overcast
10:35 PM 48.2 °F - 37.4 °F 66% 30.08 in 10.0 mi Calm Calm - N/A   Mostly Cloudy
10:55 PM 46.4 °F - 35.6 °F 66% 30.07 in 10.0 mi Calm Calm - N/A   Mostly Cloudy
11:15 PM 48.2 °F - 35.6 °F 62% 30.07 in 10.0 mi Calm Calm - N/A   Mostly Cloudy
11:35 PM 46.4 °F - 37.4 °F 71% 30.08 in 10.0 mi Calm Calm - N/A   Overcast
11:55 PM 46.4 °F - 37.4 °F 71% 30.08 in 10.0 mi Calm Calm - N/A   Overcast